Latest Coastal Weather Observations for Bougainville Reef

IDQ60701

Issued at 10:42 pm EST Wednesday 29 June 2016 (issued every 10 minutes, with the page automatically refreshed every 10 minutes)

About coastal observations | Map of coastal stations | Coastal observations for QLD | Marine services | Other Formats
Station Details ID: 200840 Name: BOUGAINVILLE REEF Lat: -15.49 Lon: 147.12 Height: 0.0 m
Data from the previous 72 hours. | See also: Recent months for locations in Queensland
Date/Time
EST
Temp
°C
Wind Pressure Rain since
9am
mm
Weather Cloud Vis
km
Sea
Height
m
Swell
Dir  Spd
kts
Gust
kts
hPa Trend Height
m
Period
s
Dir
29/10:30pm 25.1 SE 24 28 1018.8 - - - - - - - - -
29/10:00pm 24.7 SE 25 28 1018.8 - - - - - - - - -
29/09:30pm 24.8 SE 24 30 1018.9 - - - - - - - - -
29/09:00pm 24.7 SE 27 27 1018.6 - - - - - - - - -
29/08:30pm 24.9 SE 26 30 1018.6 - - - - - - - - -
29/08:00pm 24.9 SE 24 30 1018.5 - - - - - - - - -
29/07:30pm 24.6 SE 24 28 1018.4 - - - - - - - - -
29/07:00pm 24.7 SE 24 29 1017.8 - - - - - - - - -
29/06:30pm 24.7 SE 24 29 1017.7 - - - - - - - - -
29/06:00pm 24.6 SE 26 31 1017.1 - - - - - - - - -
29/05:30pm 24.6 SE 26 29 1017.0 - - - - - - - - -
29/05:00pm 24.4 SE 25 31 1016.8 - - - - - - - - -
29/04:30pm 24.6 SE 25 30 1016.8 - - - - - - - - -
29/04:00pm 24.5 SE 26 29 1016.4 - - - - - - - - -
29/03:30pm 24.6 SE 23 27 1016.5 - - - - - - - - -
29/03:00pm 24.3 SE 24 27 1016.5 - - - - - - - - -
29/02:30pm 24.5 SE 24 28 1016.6 - - - - - - - - -
29/02:00pm 24.2 SE 25 29 1016.8 - - - - - - - - -
29/01:30pm 24.1 SE 26 30 1017.2 - - - - - - - - -
29/01:00pm 24.1 SE 27 31 1017.6 - - - - - - - - -
29/12:30pm 24.1 SE 26 31 1018.0 - - - - - - - - -
29/12:00pm 24.2 SE 27 33 1018.6 - - - - - - - - -
29/11:30am 24.1 SE 28 33 1018.8 - - - - - - - - -
29/11:00am 24.1 SE 28 33 1018.8 - - - - - - - - -
29/10:30am 24.1 SE 29 33 1019.0 - - - - - - - - -
29/10:00am 24.2 SE 28 32 1018.9 - - - - - - - - -
29/09:30am 24.1 SE 27 31 1019.1 - - - - - - - - -
29/09:00am 24.1 SE 28 33 1019.1 - - - - - - - - -
29/08:30am 23.8 SE 29 32 1019.0 - - - - - - - - -
29/08:00am 23.9 SSE 27 33 1018.7 - - - - - - - - -
29/07:30am 23.8 SSE 28 32 1018.5 - - - - - - - - -
29/07:00am 24.0 SE 28 33 1018.2 - - - - - - - - -
29/06:30am 23.8 SE 28 34 1018.2 - - - - - - - - -
29/06:00am 23.9 SE 27 33 1017.9 - - - - - - - - -
29/05:30am 23.8 SE 28 32 1017.9 - - - - - - - - -
29/05:00am 23.9 SE 29 33 1017.5 - - - - - - - - -
29/04:30am 23.9 SE 29 35 1017.6 - - - - - - - - -
29/04:00am 23.9 SSE 31 36 1017.2 - - - - - - - - -
29/03:30am 23.9 SSE 31 35 1017.4 - - - - - - - - -
29/03:00am 24.4 SE 31 35 1017.6 - - - - - - - - -
29/02:30am 24.4 SE 31 36 1017.7 - - - - - - - - -
29/02:00am 24.2 SE 31 38 1017.7 - - - - - - - - -
29/01:30am 24.5 SSE 33 38 1018.1 - - - - - - - - -
29/01:00am 24.4 SSE 31 37 1018.2 - - - - - - - - -
29/12:30am 24.6 SE 32 38 1018.4 - - - - - - - - -
29/12:00am 24.7 SE 30 38 1018.3 - - - - - - - - -
 
Date/Time
EST
Temp
°C
Wind Pressure Rain since
9am
mm
Weather Cloud Vis
km
Sea
Height
m
Swell
Dir  Spd
kts
Gust
kts
hPa Trend Height
m
Period
s
Dir
28/11:30pm 24.7 SSE 33 39 1018.4 - - - - - - - - -
28/11:00pm 25.1 SE 29 37 1018.3 - - - - - - - - -
28/10:30pm 25.2 SE 29 35 1018.5 - - - - - - - - -
28/10:00pm 25.2 SE 28 34 1018.4 - - - - - - - - -
28/09:30pm 25.1 SE 30 34 1018.4 - - - - - - - - -
28/09:00pm 25.1 SE 29 34 1018.0 - - - - - - - - -
28/08:30pm 25.1 SE 30 35 1018.1 - - - - - - - - -
28/08:00pm 23.2 SE 22 33 1017.8 - - - - - - - - -
28/07:56pm 23.6 SE 23 33 1017.8 - - - - - - - - -
28/07:30pm 25.0 SE 26 30 1017.5 - - - - - - - - -
28/07:00pm 25.1 SSE 27 30 1017.1 - - - - - - - - -
28/06:30pm 25.0 SSE 27 31 1016.9 - - - - - - - - -
28/06:00pm 25.3 SSE 28 31 1016.1 - - - - - - - - -
28/05:30pm 25.3 SSE 26 30 1016.1 - - - - - - - - -
28/05:00pm 25.1 SSE 23 27 1015.6 - - - - - - - - -
28/04:30pm 25.6 SE 18 21 1015.6 - - - - - - - - -
28/04:00pm 25.6 SSE 21 22 1015.3 - - - - - - - - -
28/03:30pm 25.8 SSE 20 23 1015.5 - - - - - - - - -
28/03:00pm 26.3 SE 19 22 1015.4 - - - - - - - - -
28/02:30pm 26.3 SE 19 20 1015.5 - - - - - - - - -
28/02:00pm 26.3 SE 20 22 1015.5 - - - - - - - - -
28/01:30pm 26.3 SE 19 24 1015.6 - - - - - - - - -
28/01:00pm 26.3 SE 19 22 1016.0 - - - - - - - - -
28/12:30pm 26.4 SE 20 23 1016.4 - - - - - - - - -
28/12:00pm 26.2 SE 19 22 1016.6 - - - - - - - - -
28/11:30am 26.2 SE 19 21 1016.8 - - - - - - - - -
28/11:00am 26.3 SE 20 22 1017.0 - - - - - - - - -
28/10:30am 26.2 SE 20 23 1017.2 - - - - - - - - -
28/10:00am 26.2 SE 19 24 1017.1 - - - - - - - - -
28/09:30am 26.0 SE 17 19 1017.1 - - - - - - - - -
28/09:00am 26.1 SE 18 21 1016.9 - - - - - - - - -
28/08:30am 26.1 SE 18 21 1016.8 - - - - - - - - -
28/08:00am 26.1 SE 17 20 1016.3 - - - - - - - - -
28/07:30am 26.2 SE 17 20 1016.2 - - - - - - - - -
28/07:00am 26.0 SE 17 19 1015.6 - - - - - - - - -
28/06:30am 25.9 SE 16 18 1015.3 - - - - - - - - -
28/06:00am 25.9 SE 16 19 1014.8 - - - - - - - - -
28/05:30am 25.9 SE 16 18 1014.7 - - - - - - - - -
28/05:00am 26.0 SSE 16 18 1014.6 - - - - - - - - -
28/04:30am 26.0 SSE 16 18 1014.6 - - - - - - - - -
28/04:00am 26.1 SE 14 17 1014.4 - - - - - - - - -
28/03:30am 26.0 SE 14 17 1014.5 - - - - - - - - -
28/03:00am 26.0 SE 14 16 1014.6 - - - - - - - - -
28/02:30am 26.0 SE 13 15 1014.7 - - - - - - - - -
28/02:00am 26.0 SE 13 15 1014.9 - - - - - - - - -
28/01:30am 26.0 SE 12 15 1015.1 - - - - - - - - -
28/01:00am 25.9 SE 13 16 1015.2 - - - - - - - - -
28/12:30am 25.9 SE 13 14 1015.4 - - - - - - - - -
28/12:00am 25.9 SE 14 15 1015.2 - - - - - - - - -
 
Date/Time
EST
Temp
°C
Wind Pressure Rain since
9am
mm
Weather Cloud Vis
km
Sea
Height
m
Swell
Dir  Spd
kts
Gust
kts
hPa Trend Height
m
Period
s
Dir
27/11:30pm 26.0 SE 12 14 1015.3 - - - - - - - - -
27/11:00pm 26.1 SE 13 15 1015.4 - - - - - - - - -
27/10:30pm 26.0 SE 14 15 1015.5 - - - - - - - - -
27/10:00pm 26.2 SE 13 15 1015.4 - - - - - - - - -
27/09:30pm 26.1 SE 13 14 1015.6 - - - - - - - - -
27/09:00pm 26.3 ESE 13 15 1015.5 - - - - - - - - -
27/08:30pm 26.3 ESE 12 13 1015.5 - - - - - - - - -
27/08:00pm 26.3 SE 11 13 1015.1 - - - - - - - - -
27/07:30pm 26.3 SE 11 13 1015.1 - - - - - - - - -
27/07:00pm 26.3 SE 12 14 1014.9 - - - - - - - - -
27/06:30pm 26.4 SE 12 14 1014.8 - - - - - - - - -
27/06:00pm 26.4 SE 10 13 1014.5 - - - - - - - - -
27/05:30pm 26.4 SE 10 12 1014.4 - - - - - - - - -
27/05:00pm 26.3 ESE 10 12 1013.8 - - - - - - - - -
27/04:30pm 26.4 ESE 10 12 1013.6 - - - - - - - - -
27/04:00pm 26.4 ESE 10 11 1013.3 - - - - - - - - -
27/03:30pm 26.3 ESE 11 13 1013.3 - - - - - - - - -
27/03:00pm 26.4 E 12 13 1013.0 - - - - - - - - -
27/02:30pm 26.3 E 13 14 1013.0 - - - - - - - - -
27/02:00pm 26.4 E 14 15 1013.2 - - - - - - - - -
27/01:30pm 26.4 E 14 16 1013.5 - - - - - - - - -
27/01:00pm 26.4 E 14 15 1014.1 - - - - - - - - -
27/12:30pm 26.4 E 14 15 1014.4 - - - - - - - - -
27/12:00pm 26.3 E 15 16 1014.8 - - - - - - - - -
27/11:30am 26.4 E 15 16 1015.1 - - - - - - - - -
27/11:00am 26.4 E 15 17 1015.3 - - - - - - - - -
27/10:30am 26.4 E 14 16 1015.6 - - - - - - - - -
27/10:00am 26.5 E 14 17 1015.8 - - - - - - - - -
27/09:30am 26.4 E 15 16 1015.8 - - - - - - - - -
27/09:00am 26.4 E 15 17 1015.6 - - - - - - - - -
27/08:30am 26.3 E 14 16 1015.7 - - - - - - - - -
27/08:00am 26.3 E 16 17 1015.1 - - - - - - - - -
27/07:30am 26.2 E 16 17 1014.9 - - - - - - - - -
27/07:00am 26.1 E 15 18 1014.4 - - - - - - - - -
27/06:30am 26.1 E 15 17 1014.3 - - - - - - - - -
27/06:00am 26.1 E 15 17 1013.9 - - - - - - - - -
27/05:30am 26.1 E 15 17 1013.8 - - - - - - - - -
27/05:00am 26.1 E 15 16 1013.4 - - - - - - - - -
27/04:30am 26.0 E 15 17 1013.4 - - - - - - - - -
27/04:00am 26.2 E 16 17 1013.2 - - - - - - - - -
27/03:30am 26.1 E 15 17 1013.4 - - - - - - - - -
27/03:00am 26.0 E 14 17 1013.3 - - - - - - - - -
27/02:30am 26.1 E 16 18 1013.5 - - - - - - - - -
27/02:00am 26.2 E 15 18 1013.6 - - - - - - - - -
27/01:30am 26.2 E 16 18 1013.9 - - - - - - - - -
27/01:00am 26.3 E 15 17 1013.8 - - - - - - - - -
27/12:30am 26.3 E 16 18 1014.0 - - - - - - - - -
27/12:00am 26.3 E 16 19 1014.0 - - - - - - - - -
 
Date/Time
EST
Temp
°C
Wind Pressure Rain since
9am
mm
Weather Cloud Vis
km
Sea
Height
m
Swell
Dir  Spd
kts
Gust
kts
hPa Trend Height
m
Period
s
Dir
26/11:30pm 26.3 ESE 15 17 1014.2 - - - - - - - - -
26/11:00pm 26.4 E 15 17 1014.2 - - - - - - - - -

Other Formats:

Comma delimited format used in spreadsheet applications
http://www.bom.gov.au/fwo/IDQ60701/IDQ60701.95288.axf

JavaScript Object Notation format (JSON) in row-major order
http://www.bom.gov.au/fwo/IDQ60701/IDQ60701.95288.json